TimeCDT,TemperatureF,Dew PointF,Humidity,Sea Level PressureIn,VisibilityMPH,Wind Direction,Wind SpeedMPH,Gust SpeedMPH,PrecipitationIn,Events,Conditions,WindDirDegrees,DateUTC
12:56 AM,46.9,39.0,74,29.96,-9999.0,SW,3.5,-,N/A,,Unknown,230,2013-10-02 05:56:00
1:56 AM,46.9,39.0,74,29.96,-9999.0,SW,5.8,-,N/A,,Unknown,220,2013-10-02 06:56:00
2:56 AM,45.0,39.0,80,29.96,-9999.0,SW,4.6,-,N/A,,Unknown,230,2013-10-02 07:56:00
3:56 AM,42.1,37.9,85,29.96,-9999.0,SE,6.9,-,N/A,,Unknown,130,2013-10-02 08:56:00
4:56 AM,42.1,39.0,89,29.94,-9999.0,SE,5.8,-,N/A,,Unknown,130,2013-10-02 09:56:00
5:56 AM,46.9,41.0,80,29.93,-9999.0,Calm,Calm,-,N/A,,Unknown,0,2013-10-02 10:56:00
6:56 AM,46.0,42.1,86,29.95,-9999.0,SE,3.5,-,N/A,,Unknown,130,2013-10-02 11:56:00
7:56 AM,46.9,42.1,83,29.95,-9999.0,Calm,Calm,-,N/A,,Unknown,0,2013-10-02 12:56:00
8:56 AM,50.0,44.1,80,29.94,-9999.0,SE,3.5,-,N/A,,Unknown,130,2013-10-02 13:56:00
9:56 AM,59.0,39.9,49,29.94,-9999.0,SSE,6.9,-,N/A,,Unknown,160,2013-10-02 14:56:00
10:56 AM,62.1,41.0,46,29.93,-9999.0,SE,8.1,-,N/A,,Unknown,130,2013-10-02 15:56:00
11:56 AM,64.9,39.0,39,29.90,-9999.0,SE,8.1,-,N/A,,Unknown,140,2013-10-02 16:56:00
12:56 PM,64.9,39.0,39,29.88,-9999.0,SE,9.2,-,N/A,,Unknown,140,2013-10-02 17:56:00
1:56 PM,55.9,50.0,80,29.90,-9999.0,ESE,4.6,-,0.09,,Unknown,120,2013-10-02 18:56:00
2:56 PM,59.0,51.1,75,29.86,-9999.0,East,9.2,-,N/A,,Unknown,90,2013-10-02 19:56:00
3:56 PM,60.1,50.0,69,29.87,-9999.0,East,12.7,18.4,N/A,,Unknown,90,2013-10-02 20:56:00
4:56 PM,57.9,48.9,72,29.89,-9999.0,ENE,10.4,-,N/A,,Unknown,60,2013-10-02 21:56:00
5:56 PM,55.9,50.0,80,29.89,-9999.0,NE,5.8,-,N/A,,Unknown,50,2013-10-02 22:56:00
6:56 PM,55.0,50.0,83,29.90,-9999.0,NNE,6.9,-,N/A,,Unknown,30,2013-10-02 23:56:00
7:56 PM,53.1,50.0,89,29.92,-9999.0,NNE,3.5,-,N/A,,Unknown,20,2013-10-03 00:56:00
8:56 PM,51.1,48.9,92,29.94,-9999.0,North,5.8,-,N/A,,Unknown,350,2013-10-03 01:56:00
9:56 PM,48.9,48.0,97,29.93,-9999.0,North,6.9,-,N/A,,Unknown,350,2013-10-03 02:56:00
10:56 PM,48.0,46.9,96,29.95,-9999.0,North,8.1,-,N/A,,Unknown,350,2013-10-03 03:56:00
11:56 PM,46.9,46.0,97,29.93,-9999.0,North,5.8,-,N/A,,Unknown,350,2013-10-03 04:56:00